Theta_e
337 338 339 340 343 343 344 348 348 347 350 353 354 355 355 357 358 360 361 365 366 368 369 368 367 367 367 367 369 369 368 368 368 367 367 367 366 365 364 363 361 361 358 357 355 358 358 361 358 356 355 355 353 354 353 355 353 353 352 351 352 350 347
336 337 336 337 341 343 343 345 349 350 350 353 354 355 354 356 358 359 361 365 367 368 369 368 367 368 367 368 368 369 368 368 368 368 368 368 368 368 365 364 362 361 361 357 358 360 357 359 357 356 354 353 352 354 352 353 352 352 349 349 351 352 349
333 333 335 336 338 342 345 346 349 347 350 352 353 354 354 356 358 360 361 364 367 369 369 368 368 367 369 369 368 368 368 368 368 367 366 366 367 364 365 366 363 361 361 360 360 357 358 356 357 356 354 351 350 352 352 351 352 351 351 348 350 350 351
334 337 337 339 342 346 345 344 345 351 351 351 351 352 355 358 358 360 361 364 366 368 368 369 368 368 369 369 368 368 368 368 368 366 365 366 366 366 365 365 363 362 360 360 359 356 355 355 354 354 355 351 351 351 350 350 349 350 353 348 350 349 351
339 338 337 339 339 343 344 345 347 351 351 350 351 355 357 358 358 360 362 364 364 366 369 370 367 369 369 369 368 368 368 369 368 366 365 366 368 367 365 361 362 359 360 360 360 357 356 355 352 353 352 352 350 350 350 350 348 350 350 351 348 348 347
338 340 340 338 337 340 344 345 345 348 350 350 351 355 356 356 355 355 359 363 365 367 370 371 371 370 368 368 368 368 369 370 369 368 367 367 367 366 364 363 362 361 359 360 360 358 356 354 352 351 349 349 347 347 348 348 348 348 349 351 350 346 345
336 338 339 340 341 341 343 344 343 347 351 352 352 355 356 354 353 353 355 359 362 366 367 369 370 370 368 369 369 369 369 369 369 368 368 368 367 366 365 365 364 362 361 362 359 357 355 353 352 351 350 348 347 347 346 348 348 347 349 348 347 349 346
333 333 340 340 341 340 343 348 350 350 351 353 351 351 353 354 353 352 353 355 359 363 366 367 369 370 368 370 370 369 369 369 369 368 367 366 366 366 366 365 364 364 363 361 361 358 354 353 353 351 350 347 348 348 348 349 349 348 347 347 346 345 345
333 338 342 340 340 340 343 347 351 351 352 353 352 353 353 353 352 352 353 355 359 362 365 367 369 370 370 370 369 369 369 370 369 368 367 365 365 363 363 365 366 366 363 361 360 358 355 353 352 352 350 347 348 349 348 349 347 347 347 347 346 343 344
334 338 342 341 339 337 342 346 351 354 355 354 354 354 354 355 354 353 355 356 358 361 365 366 368 369 370 369 369 369 369 369 370 367 364 362 364 362 362 362 365 365 364 361 360 357 356 355 353 352 350 347 347 349 347 348 347 347 347 347 345 343 343
336 341 341 340 342 343 346 345 349 354 356 355 355 356 357 358 358 356 356 356 357 360 364 364 366 367 368 368 365 366 368 368 368 367 366 364 364 363 362 362 364 364 363 361 359 358 356 355 353 351 350 347 347 347 346 346 348 347 345 346 345 344 344
339 341 344 344 349 348 346 347 351 357 360 359 357 357 359 359 359 358 358 357 358 359 361 362 363 366 368 368 367 367 368 367 366 366 366 365 364 363 363 362 364 364 363 362 359 359 356 355 351 350 348 348 349 347 346 346 347 347 345 345 345 345 345
348 346 350 349 351 349 350 357 358 357 361 360 358 358 360 359 359 358 359 357 357 359 360 362 361 365 369 368 364 367 368 367 366 367 367 366 365 365 364 362 363 362 361 361 359 357 356 355 351 349 349 348 350 347 346 346 347 346 345 344 343 344 344
356 350 352 355 356 357 355 362 362 360 361 362 360 359 360 360 359 358 358 356 355 358 359 361 362 365 369 368 366 366 367 368 366 367 368 368 367 366 365 363 362 363 362 361 359 356 356 354 351 349 348 348 349 348 346 345 346 346 345 343 342 343 344
351 349 352 352 355 357 358 361 365 364 363 364 362 359 360 360 360 360 361 359 356 355 358 362 363 365 367 368 367 367 369 370 369 368 369 369 368 367 367 366 364 364 363 361 359 358 356 355 351 348 348 349 349 347 346 345 345 345 344 341 341 343 344
338 341 349 350 354 356 359 362 367 366 366 366 363 361 360 360 361 360 360 360 358 358 360 364 363 365 367 368 368 369 371 371 370 369 369 369 369 368 367 366 365 363 363 362 360 359 358 355 350 347 348 349 347 346 346 345 345 340 334 337 341 342 343
331 331 345 353 357 356 358 360 365 366 365 365 363 363 361 362 363 362 359 362 360 361 363 365 365 365 367 367 369 371 372 372 371 371 370 370 370 370 368 366 365 364 365 364 362 360 359 357 349 347 348 348 346 344 344 343 342 330 330 331 336 342 343
328 330 336 348 354 352 355 357 361 363 363 363 364 365 363 365 365 363 360 362 361 361 366 366 365 365 367 369 371 372 372 372 372 371 371 371 370 370 369 367 366 365 365 365 363 361 360 357 351 349 350 348 344 341 341 341 335 326 329 331 331 338 342
330 337 339 348 353 354 354 353 357 362 361 362 363 364 364 366 365 364 363 364 364 364 366 366 365 367 368 370 372 372 373 373 372 372 372 371 371 370 369 367 366 366 365 363 364 363 359 355 353 350 349 346 343 341 340 341 331 325 327 328 329 331 339
328 329 333 347 353 356 355 356 358 362 363 364 365 364 364 365 366 366 367 368 368 365 367 368 368 368 368 372 373 373 374 374 373 372 371 371 370 369 367 366 364 363 362 362 363 362 359 355 352 349 346 344 342 341 341 341 328 324 324 325 326 329 336
339 347 342 341 355 353 358 361 363 367 366 366 365 365 364 366 367 369 368 369 367 366 367 368 369 369 370 372 373 374 374 374 372 370 370 369 368 367 365 364 363 362 361 360 360 361 358 355 350 346 344 343 342 340 336 338 324 321 322 322 323 326 333
326 327 329 335 345 362 362 361 363 364 367 365 366 363 363 365 365 368 368 370 368 365 367 370 370 370 371 372 373 373 373 372 371 369 368 367 366 364 363 362 362 361 362 360 360 359 355 351 348 344 342 341 340 337 335 339 321 321 321 321 322 324 337
323 327 328 334 333 343 365 365 364 366 369 368 365 363 363 364 365 367 368 367 366 366 368 370 370 370 370 371 372 372 373 372 370 368 367 366 363 362 361 361 360 361 363 359 358 354 349 347 344 342 340 339 339 338 336 342 323 319 318 319 320 324 336
323 325 328 329 332 332 365 367 366 368 368 368 366 364 365 366 367 368 367 366 366 365 367 369 370 371 372 372 372 372 372 371 369 367 366 364 362 361 360 360 360 361 362 358 356 353 349 346 344 342 341 340 339 338 338 341 324 315 315 317 317 326 334
323 324 326 329 333 331 343 365 364 368 368 367 364 365 367 367 368 368 367 367 364 363 364 366 369 371 371 372 373 372 371 369 367 365 363 362 360 359 359 358 358 359 359 357 357 354 353 348 344 342 341 340 340 337 338 340 327 314 316 315 315 326 336
339 331 329 333 335 370 377 371 369 367 365 365 365 366 369 368 369 367 367 364 363 363 365 367 370 372 373 373 373 371 369 367 364 363 360 358 359 359 359 357 356 357 356 355 355 353 351 348 345 342 342 342 342 341 338 339 336 324 314 313 313 320 337
340 338 339 332 334 362 369 368 368 365 363 365 368 366 367 367 367 367 367 367 365 365 366 370 373 373 373 372 369 368 366 365 363 361 359 359 358 358 356 355 355 355 355 353 352 350 350 348 346 345 343 342 337 336 338 339 340 330 313 312 313 316 325
343 344 335 335 350 362 365 361 366 365 362 370 368 365 366 369 368 367 368 367 366 368 369 372 373 372 371 369 366 365 364 363 363 361 359 359 358 357 356 357 357 354 353 351 347 344 343 343 342 341 340 338 335 333 333 331 329 337 316 313 311 313 316
350 346 350 363 363 361 359 359 361 359 361 363 364 367 369 369 367 366 366 366 368 370 371 371 371 370 368 366 365 363 362 361 359 358 357 357 357 356 355 355 355 352 352 349 346 342 340 340 339 338 337 337 337 334 331 330 329 324 328 314 311 310 313
351 350 348 356 358 358 357 361 363 363 366 364 366 368 369 368 364 363 364 366 369 370 369 369 368 368 366 362 361 359 358 357 357 357 357 357 356 356 355 353 354 351 349 349 344 340 340 339 338 335 334 334 334 336 336 334 333 327 324 322 312 310 310
350 349 352 358 355 360 361 362 363 363 363 366 368 369 368 367 363 363 364 367 368 367 366 366 365 363 360 359 357 356 355 355 355 355 356 356 354 354 353 351 350 347 346 344 340 339 338 337 336 334 333 333 333 335 337 346 341 335 326 320 314 311 309
347 353 356 356 359 363 361 362 362 361 362 364 366 365 365 367 366 362 363 366 366 367 365 363 361 359 358 357 356 354 354 352 351 352 352 353 354 354 352 348 346 344 343 341 339 339 337 336 334 334 334 334 335 337 340 341 339 333 327 322 318 315 311
338 337 338 345 358 362 361 360 357 358 359 360 364 365 365 363 363 363 364 363 363 363 363 360 359 357 356 355 354 354 352 350 348 348 349 351 351 352 351 349 347 345 342 341 339 338 338 336 336 335 334 334 337 340 339 339 336 334 330 329 326 324 317
335 339 339 338 340 341 345 347 353 353 355 355 359 360 360 360 359 360 361 359 359 359 359 357 356 355 354 353 353 352 352 350 350 347 345 346 347 347 347 347 346 343 342 340 339 338 338 338 337 336 335 335 337 338 337 337 335 333 332 331 331 329 326
335 336 336 336 337 341 339 340 340 341 344 348 354 356 357 357 357 358 359 359 360 360 357 355 355 354 353 352 350 349 350 348 348 347 344 335 327 318 315 319 333 342 346 344 334 339 343 341 340 339 338 337 336 336 336 336 334 335 325 333 323 329 330
336 336 337 339 340 344 344 341 345 346 347 353 355 355 355 356 357 358 357 358 357 356 354 352 350 349 346 346 345 344 345 346 344 344 340 335 328 322 314 305 300 306 321 326 312 306 299 307 339 342 340 342 342 342 337 336 337 316 310 309 309 306 308
334 335 335 337 340 340 343 345 348 349 349 350 352 353 354 354 353 353 353 354 355 353 352 351 349 346 344 344 342 341 344 344 343 342 340 336 334 331 325 321 313 297 297 302 303 299 297 297 299 315 324 335 333 321 311 311 307 305 304 302 300 298 298
338 339 340 343 345 345 346 346 346 347 348 350 350 349 351 349 351 354 352 353 352 353 354 352 350 346 343 343 344 343 346 345 345 340 338 337 336 335 333 330 325 319 302 297 299 299 297 297 299 302 306 311 316 317 316 307 301 299 298 297 296 296 296
Wind_Speed
19 18 15 12 11 15 15 16 17 16 15 16 17 19 20 16 16 14 15 16 18 18 17 16 16 15 16 14 14 13 11 11 9 10 9 8 8 8 8 8 8 7 7 7 6 7 6 5 6 8 7 6 5 6 5 5 5 5 4 4 3 6 6
16 17 18 18 15 16 18 17 16 15 16 16 17 19 19 18 16 16 15 16 18 19 18 17 17 16 16 15 13 13 13 12 11 9 9 8 8 7 8 8 8 8 7 8 7 6 8 5 7 7 8 7 6 6 7 6 6 4 5 5 3 3 4
19 18 17 17 17 15 17 15 16 19 19 17 18 18 19 18 18 18 17 17 19 18 18 18 17 17 16 15 14 14 14 13 12 12 12 10 11 11 9 9 9 8 7 8 8 8 8 7 7 7 8 7 7 7 7 7 5 4 4 6 4 3 2
19 18 17 16 15 15 18 19 18 19 20 21 20 21 20 19 18 17 17 18 19 19 19 18 18 17 16 15 15 14 15 14 13 12 12 11 11 10 9 9 9 8 8 8 9 9 8 8 9 8 9 8 7 8 7 7 7 6 4 7 5 4 4
20 20 18 16 17 15 15 16 18 18 21 23 20 19 19 18 18 16 16 17 20 21 21 20 18 16 14 15 12 12 14 15 14 12 12 11 11 10 10 11 11 10 9 9 9 9 9 9 10 8 9 9 8 8 8 8 9 7 5 6 6 6 6
18 17 18 18 17 15 16 18 21 22 22 22 21 19 20 22 21 23 20 18 18 19 18 18 18 16 16 15 14 13 13 14 13 13 12 12 11 11 11 11 12 12 12 11 9 10 10 10 10 10 10 9 9 10 9 9 8 8 7 5 5 6 6
19 21 18 16 16 16 19 19 21 20 19 19 19 17 19 21 23 22 21 21 22 21 22 21 20 18 16 14 15 15 16 15 15 15 14 13 13 12 12 11 11 12 11 10 10 11 11 12 11 11 11 11 10 10 10 9 8 8 7 7 7 5 5
21 15 12 13 14 15 16 14 16 17 16 16 17 21 23 22 22 23 23 22 22 22 21 22 20 17 16 15 14 16 16 17 15 15 13 14 13 13 12 12 11 12 11 12 11 12 12 13 12 12 12 12 11 10 10 10 9 10 9 9 9 7 6
19 15 14 15 15 15 15 12 13 15 17 19 20 19 21 20 21 22 23 22 21 22 22 22 20 17 15 15 15 16 16 15 15 15 16 16 14 16 15 14 13 12 12 12 12 12 12 13 13 13 13 12 12 11 12 11 11 9 9 8 8 8 7
18 15 13 14 13 15 13 14 13 12 15 17 17 17 20 20 19 20 21 22 22 23 23 22 19 18 16 16 16 17 16 16 15 18 18 18 15 17 17 15 14 12 13 12 12 12 11 13 13 13 14 13 12 12 12 12 11 10 10 10 10 11 10
17 15 15 15 15 15 13 13 14 15 16 17 16 16 16 17 17 18 19 21 22 22 22 20 17 17 17 18 19 18 16 17 17 17 17 18 16 18 18 17 16 13 14 13 14 13 12 12 12 12 13 13 14 13 13 14 13 12 12 11 12 12 10
15 17 15 17 15 16 17 16 15 13 14 15 17 16 16 16 16 17 17 19 20 20 19 19 18 18 17 18 18 17 18 18 17 18 18 17 17 18 17 16 15 15 13 14 14 13 14 14 12 12 13 13 13 13 13 13 13 13 13 13 11 10 10
11 12 13 15 14 13 12 11 15 17 16 16 18 17 15 17 17 17 16 17 19 17 17 17 16 16 17 18 19 17 17 18 17 16 17 16 15 14 15 16 17 17 17 15 16 16 16 14 14 12 13 13 12 13 13 13 13 13 13 11 10 10 10
10 13 12 9 8 9 11 11 13 15 15 15 16 16 15 17 17 16 15 16 16 16 17 15 15 15 16 16 16 16 17 16 16 15 14 14 14 13 13 14 14 14 13 14 15 17 15 15 14 12 12 12 12 12 11 11 12 12 10 9 10 10 10
10 14 15 14 12 10 10 10 10 12 13 13 14 16 16 15 16 14 13 15 15 16 16 15 14 15 16 16 15 15 15 14 13 13 13 14 13 13 13 13 12 11 12 13 14 12 14 13 14 13 14 13 12 12 11 11 11 10 10 10 11 10 11
8 3 5 10 10 10 10 9 9 11 12 11 13 15 15 14 15 16 16 15 16 15 14 14 15 15 15 16 15 13 13 13 12 13 13 13 14 14 13 12 12 11 11 13 14 12 11 11 14 14 15 14 13 12 11 10 9 11 19 18 13 12 10
16 18 16 12 9 9 9 10 10 11 12 13 13 14 14 13 13 14 16 14 15 14 13 15 15 15 16 16 14 13 13 13 12 12 14 14 13 12 12 12 10 10 10 11 12 12 11 10 14 15 15 15 14 14 11 10 10 17 19 16 16 12 10
15 16 15 13 14 14 13 12 12 14 14 15 15 15 13 12 12 13 15 14 15 15 13 15 16 16 16 15 14 13 14 13 13 13 13 12 12 11 11 10 9 9 9 9 11 11 10 11 13 14 14 13 13 14 12 11 13 17 18 17 17 14 10
11 10 12 15 16 15 16 17 16 16 17 15 15 15 16 15 13 14 14 14 14 13 13 15 16 15 14 13 13 13 13 12 13 12 11 10 10 9 9 9 8 8 8 9 8 10 11 11 12 13 12 12 13 12 12 11 13 17 19 18 18 16 13
14 12 11 14 13 14 14 14 14 16 17 17 17 18 17 15 15 13 11 10 11 13 12 13 13 14 14 13 13 12 12 12 12 12 11 10 9 9 9 10 10 9 9 8 8 9 10 11 11 10 11 11 11 11 11 11 12 20 19 17 17 17 13
8 4 6 7 16 17 16 15 14 15 15 15 16 14 14 13 13 12 12 12 13 13 12 13 13 13 13 13 12 12 12 12 12 12 11 11 10 9 9 10 9 9 8 8 7 8 10 9 10 10 10 11 11 11 11 10 16 19 21 19 18 18 13
13 14 12 8 7 13 16 16 16 17 17 15 13 15 16 16 15 13 13 12 13 13 12 12 13 13 12 13 13 13 13 13 12 12 11 11 10 9 9 9 9 8 7 7 5 5 6 6 8 10 11 11 11 12 12 10 18 21 21 19 18 16 11
18 15 13 10 11 8 16 17 18 17 15 14 16 16 17 16 16 14 14 14 14 14 12 13 13 13 13 13 14 13 13 12 12 11 11 11 10 9 8 8 8 7 6 7 6 6 7 7 8 9 10 11 11 12 12 8 17 20 21 20 19 13 9
21 18 16 15 12 14 12 16 16 14 17 17 17 17 15 16 14 14 14 15 14 14 14 14 14 13 13 13 13 12 11 10 10 10 10 10 10 9 7 6 5 6 6 7 8 8 9 8 8 9 9 11 12 13 11 7 14 19 19 19 19 17 12
22 23 19 15 13 17 17 17 17 17 18 18 18 16 16 16 16 15 15 15 18 17 15 15 14 13 13 12 10 10 10 9 9 9 10 10 9 9 8 8 7 6 7 7 6 6 7 8 8 8 8 10 10 12 12 9 12 17 19 19 18 16 10
9 12 14 12 12 4 5 7 11 15 16 16 16 17 17 18 15 16 16 17 16 17 16 15 14 13 11 11 11 11 10 10 11 11 11 10 10 9 8 7 7 7 8 7 5 6 6 7 8 8 7 8 8 8 11 9 8 14 17 17 18 18 11
9 9 9 12 10 13 10 11 10 13 15 13 14 14 15 15 15 15 14 14 15 16 15 14 13 13 12 12 12 11 12 11 11 12 11 9 9 7 7 7 7 6 7 7 5 3 4 5 7 6 6 6 5 5 5 7 10 12 16 16 18 19 14
7 15 13 13 9 16 12 12 11 12 14 10 14 14 14 14 13 14 13 13 14 14 14 14 14 13 13 13 13 13 12 10 9 8 7 8 8 8 8 7 6 6 7 6 6 6 4 4 3 4 5 6 6 6 6 5 9 9 15 17 18 18 17
2 3 10 5 10 12 13 11 13 15 14 16 16 13 13 15 15 14 14 13 13 13 13 14 13 13 13 12 12 10 10 10 10 7 6 7 7 7 7 6 7 7 7 7 7 7 6 5 5 5 5 4 5 6 7 8 10 11 11 17 18 18 17
1 2 4 0 4 7 11 9 10 11 12 13 13 12 14 14 14 14 14 13 12 13 14 14 14 13 13 12 12 12 11 11 10 8 7 8 6 7 7 7 7 8 7 6 7 7 7 6 7 6 6 6 6 6 9 11 11 13 16 15 17 15 16
5 2 4 8 9 7 7 10 10 11 12 10 12 12 13 13 14 15 15 13 13 14 15 15 14 13 13 13 12 12 11 10 9 8 8 8 7 6 7 6 6 7 6 6 7 6 6 5 6 7 8 8 8 9 9 5 5 5 12 18 16 14 13
19 10 3 1 3 5 8 9 9 11 12 12 13 12 12 11 13 16 15 14 14 14 14 15 14 13 13 12 12 12 12 12 11 9 8 8 7 7 7 8 7 7 6 5 5 5 6 7 7 8 8 8 9 8 6 6 6 7 6 6 8 7 9
10 17 22 20 11 1 8 11 12 12 13 13 13 13 12 16 14 14 13 14 15 14 13 14 13 13 12 12 11 11 11 12 10 9 9 9 8 8 7 7 7 6 6 6 6 6 6 8 8 8 9 9 9 7 8 7 7 6 6 6 6 5 5
14 14 14 14 18 20 16 11 8 9 10 11 9 13 16 16 17 16 15 16 16 15 14 13 12 12 11 12 10 8 8 7 9 8 6 6 8 9 9 7 6 7 7 7 7 6 8 8 9 8 9 9 8 7 8 8 8 8 8 8 7 6 6
8 10 8 9 11 9 9 7 7 4 4 8 9 12 13 13 13 14 13 13 13 12 12 11 12 11 11 9 8 7 7 7 8 7 6 7 8 9 8 5 2 1 3 4 3 2 4 8 8 9 9 10 9 9 9 8 8 9 6 8 7 8 8
6 8 5 3 5 1 6 1 4 9 9 11 11 11 12 12 12 13 14 13 13 12 12 12 11 12 11 10 10 9 8 8 9 7 8 8 7 8 8 11 11 7 4 3 7 6 3 3 6 6 6 0 1 3 9 8 8 10 13 13 12 9 7
5 5 3 6 8 7 8 7 7 10 12 11 10 10 11 11 13 12 12 11 11 11 11 10 9 9 10 9 10 9 8 7 7 9 7 7 7 7 8 7 8 14 13 9 7 8 12 11 10 4 12 8 4 5 10 13 16 17 16 15 13 11 12
6 7 8 9 9 9 10 10 10 11 10 9 9 11 11 13 12 11 12 11 10 9 8 8 7 7 7 7 9 9 7 6 8 9 7 7 7 7 7 7 7 7 12 13 13 15 15 14 13 14 16 16 14 10 7 8 12 14 14 13 12 12 14
Wind_Direction
200 195 193 194 192 184 183 188 190 192 196 188 186 187 190 190 189 185 184 181 182 183 183 183 182 181 185 187 187 187 186 185 184 186 185 185 183 180 178 171 172 175 171 165 173 161 169 157 155 144 154 158 164 151 163 166 188 164 153 169 190 155 179
192 195 194 196 197 191 194 195 189 188 199 191 186 186 191 190 186 186 186 182 183 185 184 184 182 183 186 187 187 184 186 187 185 184 185 185 183 183 178 169 173 178 174 168 161 160 160 173 157 152 156 158 169 162 165 177 193 172 161 166 198 185 176
192 193 194 193 196 194 193 190 188 196 200 189 185 186 190 190 187 186 182 182 183 186 186 187 186 184 185 186 185 185 185 186 186 184 186 187 186 187 178 169 175 178 180 167 161 166 164 175 160 160 157 162 170 168 170 177 188 182 166 163 176 197 197
184 186 190 192 195 192 189 197 203 197 193 194 189 189 189 189 188 186 184 182 181 184 186 189 187 185 185 185 185 184 184 187 188 187 188 189 186 186 179 174 175 176 180 175 165 167 173 168 167 163 164 162 175 170 177 176 183 192 178 166 174 182 198
174 182 189 189 193 190 189 193 201 198 197 195 192 188 188 187 185 186 185 185 185 186 188 187 188 186 186 185 185 185 185 186 188 187 189 188 184 183 183 183 179 183 179 179 172 169 167 165 169 168 170 167 174 176 178 182 183 181 191 175 173 182 195
179 191 190 183 184 183 185 195 204 201 196 196 192 186 187 189 189 191 189 184 186 188 188 188 188 185 186 186 186 184 183 187 186 186 188 188 183 185 186 187 182 183 182 182 176 173 166 168 172 173 175 174 181 180 187 183 179 173 187 178 178 186 188
178 184 182 180 180 181 188 195 199 199 195 198 195 187 189 192 193 193 191 189 188 188 189 190 190 187 187 184 186 183 185 186 186 188 187 188 188 185 186 187 184 184 185 177 180 175 169 172 174 176 177 181 184 184 183 184 179 174 181 181 186 185 197
177 170 165 178 179 188 191 189 193 195 190 192 194 194 193 193 191 192 193 191 190 191 191 191 190 188 185 184 185 186 186 187 188 188 188 190 189 189 184 188 188 182 183 179 181 179 175 176 176 177 177 181 184 184 178 177 180 181 180 181 180 191 194
153 173 182 179 178 181 184 186 192 193 186 189 196 194 193 191 192 192 191 190 190 190 191 192 190 186 182 184 186 188 186 186 188 187 189 190 190 193 191 189 189 184 187 179 183 182 180 178 180 177 177 181 186 179 175 176 182 184 181 175 176 187 199
173 168 171 175 177 184 188 188 186 186 184 189 195 192 191 193 192 190 189 190 189 191 190 191 189 185 181 185 189 188 186 187 187 188 189 193 193 194 195 193 190 186 187 184 184 182 181 179 182 179 179 182 184 180 177 176 182 179 178 179 178 190 200
163 167 165 168 180 188 184 183 189 192 189 189 192 193 188 191 192 191 191 190 190 191 189 190 187 185 182 186 188 188 188 189 188 188 189 191 193 194 195 194 192 189 190 189 189 182 178 179 184 182 182 185 185 180 180 180 181 176 180 186 186 186 194
157 158 174 177 179 177 178 184 188 187 185 185 188 189 188 190 192 194 193 194 191 189 187 188 187 184 182 184 185 186 188 191 191 191 190 191 194 195 195 195 191 189 190 191 189 180 182 181 184 183 186 189 186 183 183 182 182 178 182 188 184 182 192
156 163 160 173 174 174 179 175 179 184 183 185 188 188 186 187 191 195 194 194 194 188 186 185 186 182 180 186 189 187 190 190 191 189 190 189 192 193 193 197 195 193 196 195 194 189 188 184 184 182 185 191 187 186 186 182 183 181 183 185 182 185 189
154 165 164 166 169 166 174 174 175 179 182 183 185 188 186 187 190 193 192 193 194 188 185 184 185 181 179 185 189 188 189 192 190 188 189 190 191 193 195 196 196 192 187 188 195 199 194 186 182 177 184 190 190 189 186 184 184 184 180 179 188 191 188
155 171 163 163 168 174 176 173 172 176 181 183 183 186 186 187 190 190 193 192 192 191 187 181 182 182 181 184 189 189 188 185 185 187 188 188 189 193 193 193 195 190 182 184 192 198 193 187 180 177 184 188 188 187 187 189 189 182 175 184 196 192 188
152 195 179 168 173 173 174 171 163 173 175 175 185 188 190 189 189 192 192 190 189 192 185 177 181 182 182 185 189 185 181 181 184 186 187 187 190 193 192 191 190 192 186 182 187 192 200 183 174 181 183 184 185 185 185 189 189 177 182 193 186 187 185
176 187 186 177 168 167 182 182 171 171 173 179 184 189 194 193 194 193 194 187 188 191 184 178 178 182 183 186 185 181 177 179 183 183 187 189 187 188 189 190 188 189 185 181 185 192 193 181 175 183 185 185 182 181 185 187 190 180 189 193 189 184 181
217 196 176 167 172 180 181 182 177 176 182 182 183 186 190 192 193 195 199 189 188 189 182 179 179 182 184 183 179 178 177 178 180 183 186 184 183 181 183 185 185 185 184 186 186 192 188 188 181 180 180 182 181 182 186 189 191 182 183 190 195 186 180
232 177 174 173 182 185 181 184 183 183 184 184 184 185 190 187 187 197 201 193 187 185 182 180 180 179 180 177 178 177 175 175 177 179 178 176 173 168 169 175 174 175 182 191 191 188 191 188 180 180 178 173 178 180 185 192 184 180 184 189 192 186 180
225 224 187 186 187 176 182 183 186 184 183 184 184 187 189 187 189 192 198 197 186 188 184 176 175 176 176 173 174 172 171 172 172 172 171 165 165 164 168 175 177 183 190 197 199 197 191 185 180 170 168 168 173 180 188 192 173 181 183 189 187 183 183
255 242 230 181 176 184 179 185 182 181 182 183 184 182 182 183 186 182 188 191 190 191 183 176 169 172 172 170 169 168 168 170 171 169 166 165 166 167 170 174 171 181 189 198 201 192 191 181 169 168 166 167 176 186 190 198 173 178 181 184 185 184 182
246 247 246 240 189 177 177 180 182 180 184 181 172 179 183 183 183 180 188 187 186 188 184 171 167 167 169 168 168 169 167 168 169 167 163 162 163 167 174 172 174 182 187 189 178 157 139 150 156 161 168 174 177 186 197 190 173 179 179 182 187 180 181
262 263 261 254 251 215 184 183 181 177 171 169 176 179 183 182 180 177 180 182 185 184 178 169 167 169 171 171 168 168 167 166 165 162 159 159 161 171 172 170 171 180 177 180 173 154 161 162 168 170 173 180 182 190 197 179 177 175 179 181 182 176 186
261 263 258 253 251 250 188 185 177 165 168 167 178 180 177 175 173 174 179 179 181 179 175 173 170 168 169 169 168 163 163 163 158 157 151 151 162 170 173 171 167 181 166 187 189 176 177 170 177 182 189 194 195 193 190 159 175 175 177 180 178 179 185
238 241 246 246 237 237 209 179 172 163 166 167 175 175 172 172 169 172 177 177 180 178 174 175 167 169 169 162 156 152 153 152 147 150 150 157 168 172 172 177 176 173 165 182 191 193 174 180 181 186 191 199 197 186 182 164 176 180 179 182 177 181 188
239 234 225 224 250 90 104 134 147 155 160 165 173 173 170 166 166 174 175 178 177 175 173 170 164 164 157 151 151 153 152 153 152 157 166 167 168 171 165 161 168 177 172 179 184 189 175 180 187 190 185 184 187 181 183 163 161 188 186 179 180 184 187
328 296 246 230 232 134 149 151 150 159 165 171 169 171 170 163 164 170 174 173 176 174 168 158 151 152 151 148 151 151 151 154 158 160 164 161 162 153 146 161 177 168 152 174 169 121 138 168 185 183 173 169 136 144 155 154 162 186 188 187 185 192 191
22 343 279 234 174 151 154 160 157 168 168 158 168 169 163 154 156 164 169 174 172 163 157 150 147 146 145 145 148 152 152 146 138 143 145 149 151 147 152 155 161 155 161 166 138 131 130 117 118 137 162 164 163 171 180 190 180 172 190 191 192 192 195
339 74 346 47 140 139 146 156 165 172 169 168 171 164 151 152 156 164 164 168 161 152 146 139 137 136 135 138 140 137 133 127 131 135 137 141 146 144 144 147 145 137 153 145 142 137 144 156 158 169 181 178 171 172 186 205 217 209 186 195 196 195 193
21 110 134 134 85 138 148 150 160 164 162 169 161 155 148 151 156 159 158 149 140 133 129 129 130 132 133 131 127 126 130 135 139 142 144 144 144 146 152 151 146 146 162 156 148 152 164 183 177 184 191 202 199 203 202 204 206 209 193 190 195 193 194
282 259 170 159 170 157 155 156 166 159 153 151 141 137 141 147 150 147 139 132 129 129 130 129 130 129 131 132 131 132 133 134 136 134 136 137 141 132 131 140 128 131 137 138 138 160 173 168 185 190 201 202 211 213 209 162 148 146 178 175 181 188 196
359 356 41 106 119 167 155 158 152 144 134 127 123 124 132 137 133 130 126 125 125 127 125 126 127 129 133 132 133 135 136 136 137 140 143 135 129 124 138 150 155 144 143 145 155 164 172 186 198 208 208 212 218 215 168 142 122 117 119 141 144 154 171
20 13 2 350 341 272 147 147 141 133 127 124 121 115 116 120 117 114 119 122 128 126 124 123 125 126 129 133 135 139 145 149 150 149 148 143 137 132 142 154 164 151 155 162 177 189 201 207 213 210 209 211 209 187 156 134 130 133 137 149 150 147 144
26 23 23 356 338 335 358 10 54 82 95 108 117 127 127 120 126 131 132 131 128 123 119 118 125 129 132 136 137 138 137 132 136 133 133 135 137 145 144 148 154 157 164 173 182 198 203 209 212 207 203 204 194 173 157 147 149 159 162 162 162 156 151
55 62 52 49 353 345 42 2 21 7 83 122 118 101 100 112 119 119 112 109 112 113 113 113 112 116 119 120 120 114 106 120 136 143 122 84 64 47 40 38 44 65 166 94 26 312 253 227 211 203 205 205 186 179 172 161 162 172 164 156 159 158 162
21 79 105 85 241 305 93 53 152 128 102 82 84 91 97 99 97 96 99 104 108 111 112 115 120 123 129 133 136 142 143 145 156 133 116 115 103 94 76 62 67 56 48 54 11 23 342 301 230 229 246 151 65 173 173 178 158 134 135 128 115 109 118
337 73 106 195 190 157 139 123 92 78 75 76 77 85 88 91 94 94 97 98 105 111 116 123 125 134 138 147 148 147 159 158 144 115 114 117 122 115 121 121 69 56 58 62 54 43 43 47 18 134 142 138 134 32 69 108 121 136 135 127 134 145 132
256 181 125 93 79 71 70 69 67 69 75 81 82 81 81 84 87 92 103 106 106 111 119 130 146 139 150 157 130 134 150 148 118 116 119 120 124 129 134 126 120 78 46 51 57 56 55 44 54 74 86 94 100 96 33 74 107 109 107 109 107 102 97